Regional Weather Roundup
Issued by NWS

Home | Current Version | Previous Version | Graphics & Text | Print | Product List | Glossary On
Versions: 1 2 3 4 5 6 7 8 9 10 11 12 13 14 15 16 17 18 19 20 21 22 23 24 25 26 27 28 29 30 31 32 33 34 35 36 37 38 39 40 41 42 43 44 45 46 47 48 49 50
000
ASUS43 KDMX 240406
RWRIA

WEATHER ROUNDUP FOR IOWA
NATIONAL WEATHER SERVICE DES MOINES IA
1100 PM CDT FRI JUN 23 2017

NOTE: "FAIR" INDICATES FEW OR NO CLOUDS BELOW 12,000 FEET WITH NO
SIGNIFICANT WEATHER AND/OR OBSTRUCTIONS TO VISIBILITY.

* - THESE STATIONS ARE NOT NWS STATIONS...THUS NOT UNDER NWS
QUALITY CONTROL.  THEY ALSO DO NOT REPORT WEATHER SUCH
AS PRECIPITATION OR FOG.

IAZ001>003-012>014-020>022-031>034-043>046-240500-
   NORTHWEST IOWA

CITY           SKY/WX    TMP DP  RH WIND       PRES   REMARKS
CARROLL *      PTCLDY    57  48  72 W5        30.05R
CHEROKEE *     CLEAR     58  42  56 NW5       30.07R
DENISON *      PTCLDY    57  50  77 CALM      30.09R
LE MARS *      CLEAR     57  41  54 NW7       30.09R
ORANGE CITY *  CLEAR     55  43  62 NW6       30.08R
SHELDON *      CLEAR     57  43  58 NW7       30.06R
SIOUX CITY     CLEAR     58  43  57 NW8       30.09R
SPENCER        PTCLDY    52  47  83 W9        30.05R
STORM LAKE *   CLEAR     55  46  71 NW9       30.07R
$$

IAZ055>058-069>071-079>083-090>094-240500-
   SOUTHWEST IOWA

CITY           SKY/WX    TMP DP  RH WIND       PRES   REMARKS
ATLANTIC *     CLEAR     59  52  77 CALM      30.07R
AUDUBON *      PTCLDY    57  52  82 CALM      30.08R
CLARINDA *       N/A     64  54  68 NW7       30.10R
COUNCIL BLFS * CLEAR     63  50  63 W6        30.09R
CRESTON *      PTCLDY    61  54  77 NW7       30.08R
HARLAN  *      CLEAR     57  52  82 NW7       30.10R
LAMONI         CLEAR     60  53  77 W6        30.06R
RED OAK *      PTCLDY    61  55  82 CALM      30.08R
SHENANDOAH *   CLEAR     63  54  72 W3        30.09R
$$

IAZ047>049-059>061-072>074-084-240500-
   CENTRAL IOWA

CITY           SKY/WX    TMP DP  RH WIND       PRES   REMARKS
AMES           PTCLDY    65  51  60 NW16      30.02R
ANKENY *       CLOUDY    66  50  55 NW9       30.03R
BOONE *        MOCLDY    64  50  59 NW12      30.02S
CHARITON *     PTCLDY    61  52  72 W6        30.03R
DES MOINES     PTCLDY    67  50  54 NW10      30.02R
GRINNELL*      CLEAR     61  53  73 W8        30.01R
KNOXVILLE *    PTCLDY    61  54  77 W6        30.00R
MARSHALLTOWN   CLOUDY    63  54  72 NW10      29.99R
NEWTON *       PTCLDY    63  52  67 NW9       30.01R
PELLA *        CLEAR     64  51  63 NW7       30.02R
PERRY *          N/A     64  48  55 NW6       30.04R
$$

IAZ004>006-015-016-023>025-035-036-240500-
   NORTH CENTRAL IOWA

CITY           SKY/WX    TMP DP  RH WIND       PRES   REMARKS
ALGONA *       CLEAR     55  52  88 W7        30.03R
CLARION *        N/A     59  52  77 NW10      30.02R
ESTHERVILLE    CLEAR     52  50  93 W8        30.03R
FORT DODGE *   PTCLDY    59  46  63 NW5       30.05R
MASON CITY     CLEAR     59  50  72 NW13      30.01R
FOREST CITY *    N/A     59  45  58 NW9       30.00R
WEBSTER CITY * PTCLDY    59  50  72 NW8       30.02R
IOWA FALLS *     N/A     62  53  74 W9        30.03R
$$

IAZ007>011-017>019-026>030-037>042-050>054-066-240500-
   NORTHEAST IOWA

CITY           SKY/WX    TMP DP  RH WIND       PRES   REMARKS
CEDAR RAPIDS   CLEAR     59  58  96 W8        29.95R
CHARLES CITY * CLEAR     61  54  77 NW10      29.97R
CLINTON *      CLEAR     62  57  83 W7        29.92R
DECORAH *      MOCLDY    61  54  77 VRB6G13   29.92R
DUBUQUE        CLEAR     62  54  74 NW10      29.92R
MONTICELLO *   CLEAR     61  55  82 W9        29.93R
OELWEIN *      PTCLDY    63  55  77 W13       29.96R
WATERLOO       MOCLDY    63  54  72 W9        29.96R
$$

IAZ064-065-067-068-078-240500-
   EAST CENTRAL IOWA

CITY           SKY/WX    TMP DP  RH WIND       PRES   REMARKS
DAVENPORT      CLEAR     62  56  80 W8        29.93R
IOWA CITY      CLEAR     66  55  67 W9        29.97R
MT. PLEASANT * CLEAR     65  53  64 W7        29.98R
MUSCATINE *    CLEAR     64  55  72 W10       29.95R
QUAD CITIES    CLEAR     66  54  65 W8        29.92R
$$

IAZ062-063-075>077-085>089-095>099-240500-
   SOUTHEAST IOWA

CITY           SKY/WX    TMP DP  RH WIND       PRES   REMARKS
BURLINGTON     CLEAR     64  56  75 W5        29.96R
FAIRFIELD *    CLEAR     63  52  67 W7        29.99R
FORT MADISON * CLEAR     66  54  63 W8        29.99R
KEOKUK *       CLEAR     64  55  72 W7        29.97R
OSKALOOSA *      N/A     60  53  78 W8        30.01R
CENTERVILLE *    N/A     61  55  82 CALM      30.04R
OTTUMWA        CLEAR     62  53  72 W6        30.00R
WASHINGTON *   PTCLDY    63  55  77 W8        29.99R
$$

ABBREVIATIONS USED IN REMARKS
   TC - TEMPERATURES IN CELSIUS
  WCI - WIND CHILL INDEX
   HX - HEAT INDEX
  VSB - VISIBILITY
$$





USA.gov is the U.S. government's official web portal to all federal, state and local government web resources and services.